Zurück zum Katalog

STARLINK-34526

AktivKommunikationVLEO
NORAD 64481·PAYLOAD·🇺🇸 United States

Gestartet Jun 23, 2025 von Cape Canaveral Space Force Station

Loading…

Nächste Überflüge (nächste 24 Stunden)

TLE

AktuellSource: CelesTrak SupGP

Epoche: Sep 15, 2026, 03:32 UTC

1 64481C 25133K   26258.14770833  .00039804  00000+0  11759-2 0  2589
2 64481  53.1588 314.8743 0001249  90.2609 220.6747 15.34374684    11

Verfolge STARLINK-34526 in Echtzeit mit AllMySat

Download on the App Store